User: anonymous   Login
Location: Caribou
(46.8667°N, 68.0167°W)
Time: 02:10:09
(UTC-04:00)
Language:

SL-08 RB Rocket - Orbit

View from above orbital plane
View from above orbital plane
View from above satellite
View from above satellite

Ground track
Ground track

The orbit data is extracted from the following two-line orbital elements,

1 26387U 00033D   18168.20358169 +.00000075 +00000-0 +21244-4 0  9999
2 26387 097.9209 227.1124 0025108 254.9484 140.7946 14.68393064219136
Epoch (UTC): 17 June 2018 04:53:09
Eccentricity: 0.0025108
inclination: 97.9209°
perigee height: 648 km
apogee height: 684 km
right ascension of ascending node: 227.1124°
argument of perigee: 254.9484°
revolutions per day: 14.68393064
mean anomaly at epoch: 140.7946°
orbit number at epoch: 21913

The dashed part of the orbit path shows where the satellite is in the earth's shadow,  

DLR